EDT,Max TemperatureF,Mean TemperatureF,Min TemperatureF,Max Dew PointF,MeanDew PointF,Min DewpointF,Max Humidity, Mean Humidity, Min Humidity, Max Sea Level PressureIn, Mean Sea Level PressureIn, Min Sea Level PressureIn, Max VisibilityMiles, Mean VisibilityMiles, Min VisibilityMiles, Max Wind SpeedMPH, Mean Wind SpeedMPH, Max Gust SpeedMPH,PrecipitationIn, CloudCover, Events, WindDirDegrees
2013-6-1,79,71,62,66,62,60,93,74,54,29.94,29.84,29.71,10,8,1,25,8,33,1.05,6,Rain-Thunderstorm,209
2013-6-2,72,64,55,64,57,46,93,73,53,29.98,29.81,29.70,10,9,1,22,13,26,T,6,Rain,256
2013-6-3,68,58,48,45,38,32,80,55,29,30.10,30.04,29.98,10,10,10,15,6,18,0.00,3,,357
2013-6-4,72,59,46,46,44,42,86,62,37,30.19,30.15,30.11,10,10,10,13,4,15,0.00,0,,72
2013-6-5,73,61,49,48,44,36,93,61,28,30.17,30.08,29.97,10,10,10,16,8,22,0.00,0,,67
2013-6-6,71,63,54,53,48,42,80,66,52,29.96,29.88,29.84,10,10,10,16,9,22,T,1,,52
2013-6-7,62,57,51,51,49,48,89,77,65,29.91,29.89,29.86,10,10,10,12,5,14,0.00,6,,6
2013-6-8,76,64,51,53,50,48,89,65,41,30.06,29.98,29.91,10,10,10,10,3,16,0.00,4,,108
2013-6-9,79,69,58,63,57,50,93,74,54,30.09,30.02,29.94,10,8,1,18,7,24,0.34,5,Rain,86
2013-6-10,76,71,65,66,64,62,93,81,68,29.94,29.81,29.74,10,5,0,21,4,29,0.90,7,Fog-Rain,201
2013-6-11,83,74,65,64,63,61,93,70,47,29.91,29.84,29.78,10,9,5,16,8,20,0.00,5,,276
2013-6-12,83,73,63,70,64,62,93,78,62,29.91,29.81,29.62,10,9,4,24,5,31,1.22,1,Rain-Thunderstorm,96
2013-6-13,78,71,63,66,60,49,93,64,35,29.91,29.68,29.52,10,7,0,20,12,26,0.18,6,Fog-Rain-Thunderstorm,319
2013-6-14,77,67,57,58,55,49,90,64,38,30.07,30.01,29.93,10,10,10,15,6,21,0.00,2,,347
2013-6-15,80,67,53,64,58,52,100,71,42,30.11,30.03,29.94,10,9,7,16,4,20,T,2,Rain,228
2013-6-16,83,73,62,65,62,58,93,72,51,29.92,29.88,29.84,10,8,1,21,12,28,0.68,5,Rain-Thunderstorm,251
2013-6-17,86,73,60,66,60,54,97,66,34,29.93,29.90,29.86,10,9,5,24,6,29,0.00,1,,244
2013-6-18,75,67,58,61,57,50,90,72,53,30.06,29.95,29.86,10,10,7,16,9,22,T,4,,37
2013-6-19,75,63,50,52,46,41,72,54,35,30.16,30.12,30.06,10,10,10,14,5,18,0.00,1,,62
2013-6-20,83,67,50,55,50,44,89,58,26,30.22,30.18,30.15,10,10,10,10,3,15,0.00,0,,169
2013-6-21,87,74,61,60,56,51,84,57,29,30.21,30.16,30.07,10,10,10,15,5,20,0.00,2,,190
2013-6-22,91,80,69,70,64,57,93,69,44,30.10,30.06,29.98,10,8,0,30,9,56,0.78,3,Rain-Thunderstorm,203
2013-6-23,91,80,68,68,65,61,90,65,40,30.10,30.04,29.99,10,10,8,32,8,39,T,3,Rain-Thunderstorm,230
2013-6-24,87,76,65,67,66,63,93,72,51,30.09,30.03,29.94,10,9,2,21,7,28,T,1,Rain-Thunderstorm,217
2013-6-25,90,79,67,70,66,62,84,68,52,29.99,29.91,29.81,10,9,6,24,11,32,0.36,3,Rain-Thunderstorm,259
2013-6-26,84,75,65,69,66,63,100,79,58,29.91,29.83,29.74,10,8,1,18,6,26,0.33,4,Rain-Thunderstorm,217
2013-6-27,84,75,65,70,67,63,97,78,58,29.76,29.72,29.64,10,6,1,43,5,54,0.23,5,Rain-Thunderstorm,340
2013-6-28,82,73,63,65,63,59,100,76,51,29.64,29.59,29.53,10,9,6,14,7,21,0.02,4,Rain-Thunderstorm,309
2013-6-29,76,69,61,64,62,58,97,79,60,29.71,29.62,29.55,10,9,2,7,3,,0.23,6,Rain-Thunderstorm,17
2013-6-30,76,69,62,62,59,57,90,72,54,29.91,29.82,29.72,10,10,7,20,10,24,0.03,5,Rain,42